CZ-3B DEB, 40164

Orbit data source: Space-Track

CZ-3B DEB, 40164 is space debris in HEO originally from a launch on Sat, 04 Sep 2010 UTC launched from the Xichang Space Center, China (XSC). Debris objects in space refer to the collection of defunct objects orbiting the Earth. Examples of debris include non-operational satellites, rocket bodies, and fragments generated from explosions, collisions, or faulty payload assembly.

Loading next visibility...
Identifier
40164, 2010-042R
Orbit
HEO
Country
Flag of CNCN / PRC
Related business
Manufacturer
CALT
Mission
Spacecraft
Bus & Motor
Unknown
Mass
Unknown
Launch date (UTC)
2010-09-04 (15 years ago)
Launch vehicle
Unknown
Launch site
Xichang Space Center, China (XSC)
Object type
Payload
Rocket body
Debris
Shape & HBR
Unknown shape, 0.3 m
Radar Cross Section
Medium (>0.1 m² and <1 m²)

Expand to show TLE details & history
Last TLE update: 12 hours ago

TLE from 12 hours ago
0 CZ-3B DEB
1 40164U 10042R   25318.46399609 -.00000326  00000-0  00000+0 0  9998
2 40164  27.2893 288.7715 7275322 294.2744 267.0659  1.89874677 83188
Epoch: 2025-11-14T11:08Z
TLE epoch observation values (Epoch: 2025-11-14T11:08:09.262Z)
Latitude
18.25242°
Longitude
-151.84388°
Altitude
33,095.373 km
Speed
2.393 km/s
True Right ascension
04h 36m 00s
True Declination
18° 14' 02"
Sunlit
Object was in daylight at epoch
Visualization orbit readout
Latitude
Unknown
Longitude
Unknown
Altitude
Unknown
Speed
Unknown
Apparent Right ascension
Unknown
Apparent Declination
Unknown
Sunlit
N/A
Visualization observer readout
Local Sidereal Time
19:55:35
Azimuth
Unknown
Elevation
Unknown
Doppler factor
Unknown
Orbital elements
Apogee altitude
41,217.849 km
Perigee altitude
1,128.741 km
Semi-major axis
27,551.432 km
Eccentricity
0.72753
Inclination
27.2893°
RAAN
288.7715°
Arg. of periapsis
294.2744°
True anomaly
202.65842°
Mean anomaly
267.0659°
Eccentric anomaly
233.54014°
Mean motion
0.4746 °/min
Orbital period
758.53 mins
BSTAR
0
Loading maneuver chart data...
Computing Atmospheric mass density...
Loading historical data...
Loading historical data...
Loading historical data...
Loading historical data...
Loading historical data...
Loading historical data...
Loading historical data...

Documentation

Showing up to 5 results
|